,,PressureMeas_1m,,PRMeasQMR101_1,,RHStat155_1m_1,,SRMeasQMS101R_1m,,TAStat155_1m_1,,GenWind_1,,GenWind_1,
2019-07-10, 00:00:07,VALID,918.306,VALID,0.0,VALID,89.648,VALID,-0.011,VALID,22.138,VALID,82.0,VALID,0.0,
2019-07-10, 00:01:07,VALID,918.29,VALID,0.0,VALID,89.849,VALID,-0.003,VALID,22.069,VALID,88.0,VALID,0.0,
2019-07-10, 00:02:07,VALID,918.233,VALID,0.0,VALID,90.238,VALID,-0.007,VALID,22.01,VALID,95.0,VALID,0.0,
2019-07-10, 00:03:07,VALID,918.231,VALID,0.0,VALID,90.033,VALID,-0.019,VALID,22.049,VALID,92.0,VALID,0.0,
2019-07-10, 00:04:07,VALID,918.203,VALID,0.0,VALID,89.967,VALID,-0.034,VALID,22.036,VALID,94.0,VALID,0.0,
2019-07-10, 00:05:07,VALID,918.187,VALID,0.0,VALID,89.9,VALID,-0.038,VALID,22.038,VALID,110.0,VALID,0.0,
2019-07-10, 00:06:07,VALID,918.17,VALID,0.0,VALID,89.838,VALID,-0.037,VALID,22.065,VALID,84.0,VALID,0.0,
2019-07-10, 00:07:07,VALID,918.152,VALID,0.0,VALID,90.091,VALID,-0.035,VALID,22.018,VALID,84.0,VALID,0.0,
2019-07-10, 00:08:07,VALID,918.147,VALID,0.0,VALID,90.474,VALID,-0.023,VALID,21.925,VALID,93.0,VALID,0.0,
2019-07-10, 00:09:07,VALID,918.1,VALID,0.0,VALID,90.647,VALID,-0.015,VALID,21.885,VALID,86.0,VALID,0.0,
2019-07-10, 00:10:07,VALID,918.096,VALID,0.0,VALID,90.624,VALID,-0.053,VALID,21.896,VALID,85.0,VALID,0.0,
2019-07-10, 00:11:07,VALID,918.071,VALID,0.0,VALID,90.76,VALID,-0.028,VALID,21.837,VALID,78.0,VALID,0.0,
2019-07-10, 00:12:07,VALID,918.061,VALID,0.0,VALID,90.897,VALID,-0.031,VALID,21.856,VALID,87.0,VALID,0.0,
2019-07-10, 00:13:07,VALID,918.039,VALID,0.0,VALID,90.903,VALID,-0.016,VALID,21.846,VALID,89.0,VALID,0.0,
2019-07-10, 00:14:07,VALID,918.038,VALID,0.0,VALID,91.145,VALID,-0.027,VALID,21.782,VALID,85.0,VALID,0.0,
2019-07-10, 00:15:07,VALID,918.014,VALID,0.0,VALID,91.334,VALID,-0.025,VALID,21.721,VALID,94.0,VALID,0.0,
2019-07-10, 00:16:07,VALID,917.998,VALID,0.0,VALID,91.736,VALID,-0.038,VALID,21.651,VALID,89.0,VALID,0.0,
2019-07-10, 00:17:07,VALID,918.013,VALID,0.0,VALID,91.926,VALID,-0.028,VALID,21.621,VALID,92.0,VALID,0.0,
2019-07-10, 00:18:07,VALID,917.997,VALID,0.0,VALID,92.065,VALID,0.011,VALID,21.568,VALID,95.0,VALID,0.0,
2019-07-10, 00:19:07,VALID,917.98,VALID,0.0,VALID,92.083,VALID,0.013,VALID,21.588,VALID,91.0,VALID,0.0,
2019-07-10, 00:20:07,VALID,917.977,VALID,0.0,VALID,91.98,VALID,0.012,VALID,21.628,VALID,95.0,VALID,0.0,
2019-07-10, 00:21:07,VALID,917.974,VALID,0.0,VALID,91.804,VALID,0.011,VALID,21.616,VALID,93.0,VALID,0.0,
2019-07-10, 00:22:07,VALID,917.948,VALID,0.0,VALID,91.882,VALID,0.023,VALID,21.67,VALID,84.0,VALID,0.0,
2019-07-10, 00:23:07,VALID,917.96,VALID,0.0,VALID,91.585,VALID,0.03,VALID,21.712,VALID,104.0,VALID,0.0,
2019-07-10, 00:24:07,VALID,917.944,VALID,0.0,VALID,91.344,VALID,0.024,VALID,21.792,VALID,106.0,VALID,0.0,
2019-07-10, 00:25:07,VALID,917.909,VALID,0.0,VALID,91.057,VALID,0.013,VALID,21.835,VALID,97.0,VALID,0.0,
2019-07-10, 00:26:07,VALID,917.913,VALID,0.0,VALID,90.912,VALID,0.025,VALID,21.843,VALID,87.0,VALID,0.0,
2019-07-10, 00:27:07,VALID,917.907,VALID,0.0,VALID,91.002,VALID,0.016,VALID,21.789,VALID,92.0,VALID,0.0,
2019-07-10, 00:28:07,VALID,917.915,VALID,0.0,VALID,91.303,VALID,0.016,VALID,21.738,VALID,90.0,VALID,0.0,
2019-07-10, 00:29:07,VALID,917.887,VALID,0.0,VALID,91.339,VALID,0.042,VALID,21.766,VALID,100.0,VALID,0.0,
2019-07-10, 00:30:07,VALID,917.901,VALID,0.0,VALID,90.974,VALID,0.013,VALID,21.804,VALID,101.0,VALID,0.0,
2019-07-10, 00:31:07,VALID,917.904,VALID,0.0,VALID,91.026,VALID,-0.001,VALID,21.773,VALID,105.0,VALID,0.0,
2019-07-10, 00:32:07,VALID,917.896,VALID,0.0,VALID,91.088,VALID,0.013,VALID,21.777,VALID,114.0,VALID,0.0,
2019-07-10, 00:33:07,VALID,917.887,VALID,0.0,VALID,91.165,VALID,-0.015,VALID,21.732,VALID,93.0,VALID,0.0,
2019-07-10, 00:34:07,VALID,917.881,VALID,0.0,VALID,91.529,VALID,-0.016,VALID,21.692,VALID,96.0,VALID,0.0,
2019-07-10, 00:35:07,VALID,917.875,VALID,0.0,VALID,91.479,VALID,-0.015,VALID,21.706,VALID,106.0,VALID,0.0,
2019-07-10, 00:36:07,VALID,917.876,VALID,0.0,VALID,91.246,VALID,-0.001,VALID,21.748,VALID,90.0,VALID,0.0,
2019-07-10, 00:37:07,VALID,917.846,VALID,0.0,VALID,91.121,VALID,-0.0,VALID,21.765,VALID,114.0,VALID,0.0,
2019-07-10, 00:38:07,VALID,917.832,VALID,0.0,VALID,90.924,VALID,-0.008,VALID,21.794,VALID,101.0,VALID,0.0,
2019-07-10, 00:39:07,VALID,917.816,VALID,0.0,VALID,90.833,VALID,-0.008,VALID,21.787,VALID,111.0,VALID,0.0,
2019-07-10, 00:40:07,VALID,917.824,VALID,0.0,VALID,90.956,VALID,-0.012,VALID,21.751,VALID,108.0,VALID,0.0,
2019-07-10, 00:41:07,VALID,917.826,VALID,0.0,VALID,90.818,VALID,-0.006,VALID,21.806,VALID,106.0,VALID,0.0,
2019-07-10, 00:42:07,VALID,917.827,VALID,0.0,VALID,90.67,VALID,-0.005,VALID,21.807,VALID,108.0,VALID,0.0,
2019-07-10, 00:43:07,VALID,917.818,VALID,0.0,VALID,90.806,VALID,-0.007,VALID,21.778,VALID,105.0,VALID,0.0,
2019-07-10, 00:44:07,VALID,917.808,VALID,0.0,VALID,91.024,VALID,0.009,VALID,21.726,VALID,101.0,VALID,0.0,
2019-07-10, 00:45:07,VALID,917.778,VALID,0.0,VALID,90.876,VALID,-0.005,VALID,21.752,VALID,116.0,VALID,0.0,
2019-07-10, 00:46:07,VALID,917.805,VALID,0.0,VALID,90.673,VALID,-0.003,VALID,21.822,VALID,117.0,VALID,0.0,
2019-07-10, 00:47:07,VALID,917.764,VALID,0.0,VALID,90.355,VALID,-0.009,VALID,21.86,VALID,110.0,VALID,0.0,
2019-07-10, 00:48:07,VALID,917.771,VALID,0.0,VALID,90.485,VALID,0.003,VALID,21.821,VALID,105.0,VALID,0.0,
2019-07-10, 00:49:07,VALID,917.772,VALID,0.0,VALID,90.547,VALID,0.013,VALID,21.855,VALID,108.0,VALID,0.0,
2019-07-10, 00:50:07,VALID,917.763,VALID,0.0,VALID,90.449,VALID,0.017,VALID,21.818,VALID,111.0,VALID,0.0,
2019-07-10, 00:51:07,VALID,917.765,VALID,0.0,VALID,90.597,VALID,0.015,VALID,21.785,VALID,106.0,VALID,0.0,
2019-07-10, 00:52:07,VALID,917.766,VALID,0.0,VALID,90.519,VALID,0.017,VALID,21.816,VALID,113.0,VALID,0.0,
2019-07-10, 00:53:07,VALID,917.761,VALID,0.0,VALID,89.991,VALID,0.029,VALID,21.928,VALID,97.0,VALID,0.0,
2019-07-10, 00:54:07,VALID,917.757,VALID,0.0,VALID,90.055,VALID,0.029,VALID,21.883,VALID,102.0,VALID,0.0,
2019-07-10, 00:55:06,VALID,917.738,VALID,0.0,VALID,90.413,VALID,0.025,VALID,21.781,VALID,111.0,VALID,0.0,
2019-07-10, 00:56:06,VALID,917.718,VALID,0.0,VALID,90.324,VALID,0.029,VALID,21.829,VALID,97.0,VALID,0.0,
2019-07-10, 00:57:06,VALID,917.679,VALID,0.0,VALID,89.779,VALID,0.014,VALID,21.927,VALID,107.0,VALID,0.0,
2019-07-10, 00:58:06,VALID,917.672,VALID,0.0,VALID,89.703,VALID,0.019,VALID,21.924,VALID,112.0,VALID,0.0,
2019-07-10, 00:59:06,VALID,917.639,VALID,0.0,VALID,89.698,VALID,0.018,VALID,21.902,VALID,116.0,VALID,0.0,
2019-07-10, 01:00:06,VALID,917.633,VALID,0.0,VALID,89.945,VALID,0.019,VALID,21.868,VALID,114.0,VALID,0.0,
2019-07-10, 01:01:06,VALID,917.612,VALID,0.0,VALID,90.05,VALID,0.016,VALID,21.842,VALID,118.0,VALID,0.0,
2019-07-10, 01:02:06,VALID,917.593,VALID,0.0,VALID,90.059,VALID,0.008,VALID,21.815,VALID,102.0,VALID,0.0,
2019-07-10, 01:03:06,VALID,917.581,VALID,0.0,VALID,90.195,VALID,0.002,VALID,21.756,VALID,107.0,VALID,0.0,
2019-07-10, 01:04:06,VALID,917.564,VALID,0.0,VALID,90.341,VALID,0.013,VALID,21.705,VALID,117.0,VALID,0.0,
2019-07-10, 01:05:06,VALID,917.573,VALID,0.0,VALID,90.572,VALID,-0.004,VALID,21.661,VALID,114.0,VALID,0.0,
2019-07-10, 01:06:06,VALID,917.555,VALID,0.0,VALID,90.779,VALID,-0.009,VALID,21.684,VALID,107.0,VALID,0.0,
2019-07-10, 01:07:06,VALID,917.541,VALID,0.0,VALID,90.66,VALID,-0.001,VALID,21.73,VALID,120.0,VALID,0.0,
2019-07-10, 01:08:06,VALID,917.543,VALID,0.0,VALID,90.517,VALID,0.004,VALID,21.755,VALID,114.0,VALID,0.0,
2019-07-10, 01:09:06,VALID,917.53,VALID,0.0,VALID,90.109,VALID,-0.003,VALID,21.82,VALID,103.0,VALID,0.0,
2019-07-10, 01:10:06,VALID,917.51,VALID,0.0,VALID,90.135,VALID,0.005,VALID,21.765,VALID,91.0,VALID,0.0,
2019-07-10, 01:11:06,VALID,917.488,VALID,0.0,VALID,90.488,VALID,0.006,VALID,21.716,VALID,85.0,VALID,0.0,
2019-07-10, 01:12:06,VALID,917.474,VALID,0.0,VALID,90.652,VALID,-0.004,VALID,21.661,VALID,96.0,VALID,0.0,
2019-07-10, 01:13:06,VALID,917.427,VALID,0.0,VALID,90.77,VALID,-0.002,VALID,21.603,VALID,99.0,VALID,0.0,
2019-07-10, 01:14:06,VALID,917.41,VALID,0.0,VALID,91.148,VALID,0.014,VALID,21.523,VALID,96.0,VALID,0.0,
2019-07-10, 01:15:06,VALID,917.409,VALID,0.0,VALID,91.178,VALID,0.011,VALID,21.549,VALID,104.0,VALID,0.0,
2019-07-10, 01:16:06,VALID,917.422,VALID,0.0,VALID,90.867,VALID,0.012,VALID,21.573,VALID,114.0,VALID,0.0,
2019-07-10, 01:17:06,VALID,917.417,VALID,0.0,VALID,90.48,VALID,0.015,VALID,21.614,VALID,106.0,VALID,0.0,
2019-07-10, 01:18:06,VALID,917.423,VALID,0.0,VALID,90.108,VALID,0.012,VALID,21.695,VALID,115.0,VALID,0.0,
2019-07-10, 01:19:06,VALID,917.414,VALID,0.0,VALID,89.562,VALID,0.002,VALID,21.828,VALID,117.0,VALID,0.0,
2019-07-10, 01:20:06,VALID,917.405,VALID,0.0,VALID,88.731,VALID,0.003,VALID,21.976,VALID,109.0,VALID,0.0,
2019-07-10, 01:21:06,VALID,917.402,VALID,0.0,VALID,88.604,VALID,0.008,VALID,21.956,VALID,103.0,VALID,0.0,
2019-07-10, 01:22:06,VALID,917.407,VALID,0.0,VALID,89.022,VALID,0.011,VALID,21.872,VALID,94.0,VALID,0.0,
2019-07-10, 01:23:06,VALID,917.39,VALID,0.0,VALID,89.462,VALID,0.006,VALID,21.787,VALID,96.0,VALID,0.0,
2019-07-10, 01:24:06,VALID,917.367,VALID,0.0,VALID,89.735,VALID,0.005,VALID,21.732,VALID,105.0,VALID,0.0,
2019-07-10, 01:25:06,VALID,917.344,VALID,0.0,VALID,89.821,VALID,0.008,VALID,21.69,VALID,108.0,VALID,0.0,
2019-07-10, 01:26:06,VALID,917.361,VALID,0.0,VALID,89.793,VALID,-0.002,VALID,21.693,VALID,106.0,VALID,0.0,
2019-07-10, 01:27:06,VALID,917.364,VALID,0.0,VALID,89.99,VALID,0.009,VALID,21.644,VALID,108.0,VALID,0.0,
2019-07-10, 01:28:06,VALID,917.359,VALID,0.0,VALID,90.18,VALID,0.013,VALID,21.602,VALID,106.0,VALID,0.0,
2019-07-10, 01:29:06,VALID,917.357,VALID,0.0,VALID,90.501,VALID,0.018,VALID,21.573,VALID,100.0,VALID,0.0,
2019-07-10, 01:30:06,VALID,917.365,VALID,0.0,VALID,90.577,VALID,-0.004,VALID,21.555,VALID,113.0,VALID,0.0,
2019-07-10, 01:31:06,VALID,917.36,VALID,0.0,VALID,90.348,VALID,-0.006,VALID,21.568,VALID,108.0,VALID,0.0,
2019-07-10, 01:32:06,VALID,917.34,VALID,0.0,VALID,90.591,VALID,0.003,VALID,21.517,VALID,113.0,VALID,0.0,
2019-07-10, 01:33:06,VALID,917.324,VALID,0.0,VALID,90.678,VALID,0.003,VALID,21.507,VALID,112.0,VALID,0.0,
2019-07-10, 01:34:06,VALID,917.324,VALID,0.0,VALID,90.856,VALID,0.01,VALID,21.487,VALID,103.0,VALID,0.0,
2019-07-10, 01:35:06,VALID,917.304,VALID,0.0,VALID,90.729,VALID,0.02,VALID,21.478,VALID,116.0,VALID,0.0,
2019-07-10, 01:36:06,VALID,917.283,VALID,0.0,VALID,90.907,VALID,0.01,VALID,21.444,VALID,127.0,VALID,0.0,
2019-07-10, 01:37:06,VALID,917.271,VALID,0.0,VALID,90.817,VALID,0.016,VALID,21.473,VALID,125.0,VALID,0.0,
2019-07-10, 01:38:06,VALID,917.257,VALID,0.0,VALID,90.839,VALID,0.006,VALID,21.461,VALID,119.0,VALID,0.0,
2019-07-10, 01:39:06,VALID,917.215,VALID,0.0,VALID,91.158,VALID,0.014,VALID,21.452,VALID,118.0,VALID,0.0,
2019-07-10, 01:40:06,VALID,917.195,VALID,0.0,VALID,91.144,VALID,0.005,VALID,21.452,VALID,121.0,VALID,0.0,
2019-07-10, 01:41:06,VALID,917.182,VALID,0.0,VALID,91.143,VALID,0.003,VALID,21.458,VALID,117.0,VALID,0.0,
2019-07-10, 01:42:06,VALID,917.17,VALID,0.0,VALID,91.098,VALID,0.017,VALID,21.449,VALID,125.0,VALID,0.0,
2019-07-10, 01:43:06,VALID,917.145,VALID,0.0,VALID,91.055,VALID,0.008,VALID,21.436,VALID,117.0,VALID,0.0,
2019-07-10, 01:44:06,VALID,917.123,VALID,0.0,VALID,91.207,VALID,0.002,VALID,21.409,VALID,126.0,VALID,0.0,
2019-07-10, 01:45:06,VALID,917.129,VALID,0.0,VALID,91.145,VALID,-0.005,VALID,21.443,VALID,126.0,VALID,0.0,
2019-07-10, 01:46:06,VALID,917.121,VALID,0.0,VALID,90.935,VALID,-0.002,VALID,21.448,VALID,130.0,VALID,0.0,
2019-07-10, 01:47:06,VALID,917.127,VALID,0.0,VALID,90.928,VALID,0.004,VALID,21.415,VALID,120.0,VALID,0.0,
2019-07-10, 01:48:06,VALID,917.117,VALID,0.0,VALID,91.083,VALID,0.016,VALID,21.388,VALID,125.0,VALID,0.0,
2019-07-10, 01:49:06,VALID,917.104,VALID,0.0,VALID,91.064,VALID,0.027,VALID,21.406,VALID,124.0,VALID,0.0,
2019-07-10, 01:50:06,VALID,917.082,VALID,0.0,VALID,90.838,VALID,0.018,VALID,21.401,VALID,129.0,VALID,0.0,
2019-07-10, 01:51:06,VALID,917.077,VALID,0.0,VALID,90.807,VALID,0.032,VALID,21.403,VALID,124.0,VALID,0.0,
2019-07-10, 01:52:06,VALID,917.057,VALID,0.0,VALID,90.671,VALID,0.041,VALID,21.416,VALID,114.0,VALID,0.0,
2019-07-10, 01:53:06,VALID,917.074,VALID,0.0,VALID,90.628,VALID,0.028,VALID,21.403,VALID,127.0,VALID,0.0,
2019-07-10, 01:54:06,VALID,917.081,VALID,0.0,VALID,90.541,VALID,0.025,VALID,21.416,VALID,111.0,VALID,0.0,
2019-07-10, 01:55:06,VALID,917.068,VALID,0.0,VALID,90.597,VALID,0.002,VALID,21.394,VALID,122.0,VALID,0.0,
2019-07-10, 01:56:06,VALID,917.056,VALID,0.0,VALID,90.565,VALID,0.012,VALID,21.431,VALID,114.0,VALID,0.0,
2019-07-10, 01:57:06,VALID,917.049,VALID,0.0,VALID,90.134,VALID,0.022,VALID,21.473,VALID,109.0,VALID,0.0,
2019-07-10, 01:58:06,VALID,917.037,VALID,0.0,VALID,90.206,VALID,0.025,VALID,21.397,VALID,102.0,VALID,0.0,
2019-07-10, 01:59:06,VALID,917.02,VALID,0.0,VALID,90.619,VALID,0.011,VALID,21.34,VALID,103.0,VALID,0.0,
2019-07-10, 02:00:06,VALID,916.982,VALID,0.0,VALID,90.998,VALID,0.025,VALID,21.291,VALID,111.0,VALID,0.0,
2019-07-10, 02:01:06,VALID,916.98,VALID,0.0,VALID,90.791,VALID,0.04,VALID,21.315,VALID,102.0,VALID,0.0,
2019-07-10, 02:02:06,VALID,916.963,VALID,0.0,VALID,90.835,VALID,0.032,VALID,21.271,VALID,102.0,VALID,0.0,
2019-07-10, 02:03:06,VALID,916.922,VALID,0.0,VALID,91.076,VALID,-0.024,VALID,21.262,VALID,114.0,VALID,0.0,
2019-07-10, 02:04:06,VALID,916.911,VALID,0.0,VALID,90.807,VALID,-0.031,VALID,21.278,VALID,118.0,VALID,0.0,
2019-07-10, 02:05:06,VALID,916.924,VALID,0.0,VALID,90.665,VALID,-0.023,VALID,21.283,VALID,106.0,VALID,0.0,
2019-07-10, 02:06:06,VALID,916.911,VALID,0.0,VALID,90.596,VALID,-0.034,VALID,21.261,VALID,95.0,VALID,0.0,
2019-07-10, 02:07:06,VALID,916.876,VALID,0.0,VALID,90.783,VALID,-0.028,VALID,21.25,VALID,95.0,VALID,0.0,
2019-07-10, 02:08:06,VALID,916.852,VALID,0.0,VALID,90.993,VALID,-0.02,VALID,21.239,VALID,109.0,VALID,0.0,
2019-07-10, 02:09:06,VALID,916.861,VALID,0.0,VALID,90.918,VALID,-0.014,VALID,21.26,VALID,120.0,VALID,0.0,
2019-07-10, 02:10:06,VALID,916.852,VALID,0.0,VALID,90.566,VALID,-0.017,VALID,21.269,VALID,132.0,VALID,0.0,
2019-07-10, 02:11:06,VALID,916.824,VALID,0.0,VALID,90.308,VALID,-0.028,VALID,21.314,VALID,143.0,VALID,0.0,
2019-07-10, 02:12:06,VALID,916.812,VALID,0.0,VALID,89.993,VALID,-0.028,VALID,21.381,VALID,146.0,VALID,0.0,
2019-07-10, 02:13:06,VALID,916.816,VALID,0.0,VALID,89.464,VALID,-0.01,VALID,21.449,VALID,112.0,VALID,0.0,
2019-07-10, 02:14:06,VALID,916.826,VALID,0.0,VALID,89.357,VALID,-0.019,VALID,21.429,VALID,123.0,VALID,0.0,
2019-07-10, 02:15:06,VALID,916.798,VALID,0.0,VALID,89.537,VALID,-0.016,VALID,21.437,VALID,124.0,VALID,0.0,
2019-07-10, 02:16:06,VALID,916.8,VALID,0.0,VALID,89.402,VALID,-0.003,VALID,21.459,VALID,119.0,VALID,0.0,
2019-07-10, 02:17:06,VALID,916.798,VALID,0.0,VALID,89.156,VALID,-0.017,VALID,21.454,VALID,123.0,VALID,0.0,
2019-07-10, 02:18:06,VALID,916.791,VALID,0.0,VALID,89.335,VALID,0.001,VALID,21.424,VALID,125.0,VALID,0.0,
2019-07-10, 02:19:06,VALID,916.758,VALID,0.0,VALID,89.542,VALID,0.009,VALID,21.404,INVALID,360.0,VALID,0.0,
2019-07-10, 02:20:06,VALID,916.758,VALID,0.0,VALID,89.471,VALID,-0.002,VALID,21.427,VALID,122.0,VALID,0.0,
2019-07-10, 02:21:06,VALID,916.768,VALID,0.0,VALID,89.558,VALID,-0.015,VALID,21.426,VALID,129.0,VALID,0.0,
2019-07-10, 02:22:06,VALID,916.756,VALID,0.0,VALID,89.559,VALID,-0.007,VALID,21.391,VALID,118.0,VALID,0.0,
2019-07-10, 02:23:06,VALID,916.742,VALID,0.0,VALID,89.846,VALID,0.006,VALID,21.303,VALID,114.0,VALID,0.0,
2019-07-10, 02:24:06,VALID,916.742,VALID,0.0,VALID,90.165,VALID,0.01,VALID,21.258,VALID,118.0,VALID,0.0,
2019-07-10, 02:25:06,VALID,916.723,VALID,0.0,VALID,90.329,VALID,-0.001,VALID,21.268,VALID,115.0,VALID,0.0,
2019-07-10, 02:26:06,VALID,916.689,VALID,0.0,VALID,90.137,VALID,0.013,VALID,21.326,VALID,122.0,VALID,0.0,
2019-07-10, 02:27:06,VALID,916.678,VALID,0.0,VALID,89.551,VALID,0.014,VALID,21.435,VALID,117.0,VALID,0.0,
2019-07-10, 02:28:06,VALID,916.661,VALID,0.0,VALID,89.331,VALID,0.006,VALID,21.434,VALID,126.0,VALID,0.0,
2019-07-10, 02:29:06,VALID,916.646,VALID,0.0,VALID,89.456,VALID,0.009,VALID,21.415,VALID,124.0,VALID,0.0,
2019-07-10, 02:30:06,VALID,916.631,VALID,0.0,VALID,89.479,VALID,0.01,VALID,21.429,VALID,119.0,VALID,0.0,
2019-07-10, 02:31:06,VALID,916.609,VALID,0.0,VALID,89.492,VALID,0.005,VALID,21.388,VALID,116.0,VALID,0.0,
2019-07-10, 02:32:06,VALID,916.58,VALID,0.0,VALID,89.609,VALID,0.009,VALID,21.362,VALID,116.0,VALID,0.0,
2019-07-10, 02:33:06,VALID,916.595,VALID,0.0,VALID,89.706,VALID,-0.005,VALID,21.342,VALID,98.0,VALID,0.0,
2019-07-10, 02:34:06,VALID,916.578,VALID,0.0,VALID,89.569,VALID,-0.012,VALID,21.391,VALID,113.0,VALID,0.0,
2019-07-10, 02:35:06,VALID,916.568,VALID,0.0,VALID,89.377,VALID,-0.018,VALID,21.391,VALID,78.0,VALID,0.0,
2019-07-10, 02:36:06,VALID,916.573,VALID,0.0,VALID,89.731,VALID,-0.004,VALID,21.294,VALID,87.0,VALID,0.0,
2019-07-10, 02:37:06,VALID,916.569,VALID,0.0,VALID,89.809,VALID,-0.013,VALID,21.271,VALID,105.0,VALID,0.0,
2019-07-10, 02:38:06,VALID,916.568,VALID,0.0,VALID,89.619,VALID,-0.013,VALID,21.312,VALID,93.0,VALID,0.0,
2019-07-10, 02:39:06,VALID,916.573,VALID,0.0,VALID,89.518,VALID,-0.019,VALID,21.338,VALID,95.0,VALID,0.0,
2019-07-10, 02:40:06,VALID,916.581,VALID,0.0,VALID,89.646,VALID,-0.03,VALID,21.259,VALID,106.0,VALID,0.0,
2019-07-10, 02:41:06,VALID,916.583,VALID,0.0,VALID,89.872,VALID,-0.008,VALID,21.185,VALID,96.0,VALID,0.0,
2019-07-10, 02:42:06,VALID,916.562,VALID,0.0,VALID,90.265,VALID,-0.013,VALID,21.113,VALID,100.0,VALID,0.0,
2019-07-10, 02:43:06,VALID,916.558,VALID,0.0,VALID,90.49,VALID,-0.02,VALID,21.076,VALID,120.0,VALID,0.0,
2019-07-10, 02:44:06,VALID,916.553,VALID,0.0,VALID,90.421,VALID,-0.017,VALID,21.081,VALID,114.0,VALID,0.0,
2019-07-10, 02:45:06,VALID,916.543,VALID,0.0,VALID,90.117,VALID,-0.004,VALID,21.124,VALID,98.0,VALID,0.0,
2019-07-10, 02:46:06,VALID,916.507,VALID,0.0,VALID,90.083,VALID,-0.009,VALID,21.171,VALID,129.0,VALID,0.0,
2019-07-10, 02:47:06,VALID,916.496,VALID,0.0,VALID,89.732,VALID,-0.018,VALID,21.247,VALID,110.0,VALID,0.0,
2019-07-10, 02:48:06,VALID,916.472,VALID,0.0,VALID,89.447,VALID,0.034,VALID,21.303,VALID,115.0,VALID,0.0,
2019-07-10, 02:49:06,VALID,916.459,VALID,0.0,VALID,89.369,VALID,0.032,VALID,21.319,VALID,122.0,VALID,0.0,
2019-07-10, 02:50:06,VALID,916.436,VALID,0.0,VALID,89.1,VALID,0.047,VALID,21.313,VALID,120.0,VALID,0.0,
2019-07-10, 02:51:06,VALID,916.414,VALID,0.0,VALID,89.137,VALID,0.041,VALID,21.265,VALID,126.0,VALID,0.0,
2019-07-10, 02:52:06,VALID,916.385,VALID,0.0,VALID,89.238,VALID,0.04,VALID,21.297,VALID,114.0,VALID,0.0,
2019-07-10, 02:53:06,VALID,916.384,VALID,0.0,VALID,88.909,VALID,0.032,VALID,21.343,VALID,123.0,VALID,0.0,
2019-07-10, 02:54:06,VALID,916.373,VALID,0.0,VALID,88.515,VALID,0.032,VALID,21.428,VALID,114.0,VALID,0.0,
2019-07-10, 02:55:06,VALID,916.352,VALID,0.0,VALID,88.27,VALID,0.03,VALID,21.479,VALID,88.0,VALID,0.0,
2019-07-10, 02:56:06,VALID,916.367,VALID,0.0,VALID,88.389,VALID,0.041,VALID,21.4,VALID,114.0,VALID,0.0,
2019-07-10, 02:57:06,VALID,916.35,VALID,0.0,VALID,88.638,VALID,0.024,VALID,21.32,VALID,125.0,VALID,0.0,
2019-07-10, 02:58:06,VALID,916.352,VALID,0.0,VALID,88.686,VALID,0.031,VALID,21.325,VALID,117.0,VALID,0.0,
2019-07-10, 02:59:06,VALID,916.344,VALID,0.0,VALID,88.653,VALID,0.026,VALID,21.351,VALID,100.0,VALID,0.0,
2019-07-10, 03:00:06,VALID,916.355,VALID,0.0,VALID,88.525,VALID,0.026,VALID,21.314,VALID,131.0,VALID,0.0,
2019-07-10, 03:01:06,VALID,916.359,VALID,0.0,VALID,88.751,VALID,0.047,VALID,21.263,VALID,129.0,VALID,0.0,
2019-07-10, 03:02:06,VALID,916.365,VALID,0.0,VALID,88.794,VALID,0.039,VALID,21.296,VALID,154.0,VALID,0.0,
2019-07-10, 03:03:06,VALID,916.392,VALID,0.0,VALID,88.354,VALID,-0.002,VALID,21.368,VALID,127.0,VALID,0.0,
2019-07-10, 03:04:06,VALID,916.401,VALID,0.0,VALID,88.235,VALID,0.004,VALID,21.389,VALID,136.0,VALID,0.0,
2019-07-10, 03:05:06,VALID,916.378,VALID,0.0,VALID,88.34,VALID,-0.009,VALID,21.383,INVALID,360.0,VALID,0.0,
2019-07-10, 03:06:06,VALID,916.38,VALID,0.0,VALID,88.156,VALID,-0.014,VALID,21.427,INVALID,360.0,VALID,0.0,
2019-07-10, 03:07:06,VALID,916.375,VALID,0.0,VALID,88.02,VALID,-0.015,VALID,21.434,VALID,130.0,VALID,0.0,
2019-07-10, 03:08:06,VALID,916.382,VALID,0.0,VALID,88.219,VALID,-0.002,VALID,21.386,VALID,130.0,VALID,0.0,
2019-07-10, 03:09:06,VALID,916.351,VALID,0.0,VALID,88.28,VALID,-0.014,VALID,21.333,VALID,148.0,VALID,0.0,
2019-07-10, 03:10:06,VALID,916.343,VALID,0.0,VALID,88.475,VALID,-0.012,VALID,21.326,VALID,137.0,VALID,0.0,
2019-07-10, 03:11:06,VALID,916.328,VALID,0.0,VALID,88.251,VALID,-0.018,VALID,21.352,VALID,156.0,VALID,0.0,
2019-07-10, 03:12:06,VALID,916.308,VALID,0.0,VALID,88.233,VALID,-0.015,VALID,21.359,INVALID,360.0,VALID,0.0,
2019-07-10, 03:13:06,VALID,916.317,VALID,0.0,VALID,88.352,VALID,-0.021,VALID,21.362,INVALID,360.0,VALID,0.0,
2019-07-10, 03:14:06,VALID,916.304,VALID,0.0,VALID,88.328,VALID,-0.02,VALID,21.355,INVALID,360.0,VALID,0.0,
2019-07-10, 03:15:06,VALID,916.335,VALID,0.0,VALID,88.372,VALID,-0.022,VALID,21.345,INVALID,360.0,VALID,0.0,
2019-07-10, 03:16:06,VALID,916.325,VALID,0.0,VALID,88.463,VALID,-0.018,VALID,21.314,VALID,123.0,VALID,0.0,
2019-07-10, 03:17:06,VALID,916.341,VALID,0.0,VALID,88.623,VALID,-0.012,VALID,21.288,VALID,151.0,VALID,0.0,
2019-07-10, 03:18:06,VALID,916.365,VALID,0.0,VALID,88.541,VALID,-0.037,VALID,21.286,VALID,144.0,VALID,0.0,
2019-07-10, 03:19:06,VALID,916.377,VALID,0.0,VALID,88.672,VALID,-0.041,VALID,21.254,VALID,145.0,VALID,0.0,
2019-07-10, 03:20:06,VALID,916.376,VALID,0.0,VALID,88.826,VALID,-0.045,VALID,21.195,VALID,142.0,VALID,0.0,
2019-07-10, 03:21:06,VALID,916.382,VALID,0.0,VALID,89.148,VALID,-0.027,VALID,21.113,VALID,138.0,VALID,0.0,
2019-07-10, 03:22:06,VALID,916.404,VALID,0.0,VALID,89.245,VALID,-0.043,VALID,21.071,VALID,144.0,VALID,0.0,
2019-07-10, 03:23:06,VALID,916.412,VALID,0.0,VALID,89.368,VALID,-0.017,VALID,21.066,VALID,138.0,VALID,0.0,
2019-07-10, 03:24:06,VALID,916.407,VALID,0.0,VALID,89.281,VALID,-0.022,VALID,21.012,VALID,131.0,VALID,0.0,
2019-07-10, 03:25:06,VALID,916.402,VALID,0.0,VALID,89.558,VALID,-0.027,VALID,20.941,VALID,121.0,VALID,0.0,
2019-07-10, 03:26:06,VALID,916.394,VALID,0.0,VALID,89.903,VALID,-0.043,VALID,20.98,VALID,118.0,VALID,0.0,
2019-07-10, 03:27:06,VALID,916.394,VALID,0.0,VALID,89.029,VALID,-0.035,VALID,21.167,VALID,132.0,VALID,0.0,
2019-07-10, 03:28:06,VALID,916.394,VALID,0.0,VALID,88.441,VALID,-0.038,VALID,21.23,VALID,104.0,VALID,0.0,
2019-07-10, 03:29:06,VALID,916.374,VALID,0.0,VALID,88.56,VALID,-0.037,VALID,21.212,VALID,116.0,VALID,0.0,
2019-07-10, 03:30:06,VALID,916.393,VALID,0.0,VALID,88.76,VALID,-0.033,VALID,21.174,VALID,117.0,VALID,0.0,
2019-07-10, 03:31:06,VALID,916.403,VALID,0.0,VALID,88.523,VALID,-0.042,VALID,21.254,VALID,113.0,VALID,0.0,
2019-07-10, 03:32:06,VALID,916.396,VALID,0.0,VALID,88.079,VALID,-0.033,VALID,21.37,VALID,114.0,VALID,0.0,
2019-07-10, 03:33:06,VALID,916.39,VALID,0.0,VALID,87.755,VALID,-0.001,VALID,21.444,VALID,111.0,VALID,0.0,
2019-07-10, 03:34:06,VALID,916.396,VALID,0.0,VALID,87.401,VALID,-0.002,VALID,21.472,VALID,108.0,VALID,0.0,
2019-07-10, 03:35:06,VALID,916.404,VALID,0.0,VALID,87.72,VALID,-0.014,VALID,21.369,VALID,111.0,VALID,0.0,
2019-07-10, 03:36:06,VALID,916.396,VALID,0.0,VALID,87.994,VALID,-0.005,VALID,21.373,VALID,105.0,VALID,0.0,
2019-07-10, 03:37:06,VALID,916.389,VALID,0.0,VALID,87.76,VALID,0.003,VALID,21.429,VALID,116.0,VALID,0.0,
2019-07-10, 03:38:06,VALID,916.375,VALID,0.0,VALID,87.538,VALID,0.006,VALID,21.478,VALID,114.0,VALID,0.0,
2019-07-10, 03:39:06,VALID,916.359,VALID,0.0,VALID,87.429,VALID,-0.014,VALID,21.488,VALID,105.0,VALID,0.0,
2019-07-10, 03:40:06,VALID,916.362,VALID,0.0,VALID,87.831,VALID,-0.006,VALID,21.392,VALID,104.0,VALID,0.0,
2019-07-10, 03:41:06,VALID,916.375,VALID,0.0,VALID,88.123,VALID,-0.008,VALID,21.381,VALID,107.0,VALID,0.0,
2019-07-10, 03:42:06,VALID,916.352,VALID,0.0,VALID,88.062,VALID,0.005,VALID,21.393,VALID,116.0,VALID,0.0,